Columbia Airport, CA

10:37 PM PDT on October 20, 2019 (GMT -0700)
Columbia Airport

Weather History for KO22 - July, 2019

Change the Weather History Date:

Monday, July 29, 2019

  Actual Average (KMOD) Record (KMOD)
Temperature  
Mean Temperature 80 °F -  
Max Temperature 96 °F 94 °F 107 °F (2016)
Min Temperature 64 °F 61 °F 53 °F (1949)
Cooling Degree Days 15    
Growing Degree Days 30 (Base 50)    
Moisture  
Dew Point 49 °F    
Average Humidity 35    
Maximum Humidity 64    
Minimum Humidity 14    
Precipitation  
Precipitation 0.00 in - - ()
Sea Level Pressure  
Sea Level Pressure 29.96 in    
Wind  
Wind Speed 3 mph (SSW)    
Max Wind Speed 12 mph    
Max Gust Speed 15 mph    
Visibility 10 miles    
Events      
Averages and records for this station are not official NWS values.
T = Trace of Precipitation, MM = Missing Value Source: NWS Daily Summary

Daily Weather History Graph

Daily Weather History Graph

Search for Another Location

Airport or City:

Astronomy

Jul. 29, 2019 Rise Set
Actual Time 6:01 AM PDT 8:13 PM PDT
Civil Twilight 5:32 AM PDT 8:43 PM PDT
Nautical Twilight 4:56 AM PDT 9:19 PM PDT
Astronomical Twilight 4:16 AM PDT 9:58 PM PDT
Moon 3:19 AM PDT (7/29) 6:21 PM PDT (7/29)
Length of Visible Light 15h 10m
Length of Day
14h 11m
Waning Crescent, 8% of the Moon is Illuminated
Jul 29
Waning Crescent
Jul 31
New
Aug 7
First Quarter
Aug 15
Full
Aug 23
Last Quarter

Hourly Weather History & Observations

Time (PDT) Temp. Heat Index Dew Point Humidity Pressure Visibility Wind Dir Wind Speed Gust Speed Precip Events Conditions
5:15 AM 66.2 °F - 51.8 °F 60% 29.95 in 10.0 mi Calm Calm - N/A   Clear
5:35 AM 64.4 °F - 51.8 °F 64% 29.95 in 10.0 mi Calm Calm - N/A   Clear
5:55 AM 64.4 °F - 51.8 °F 64% 29.95 in 10.0 mi Calm Calm - N/A   Clear
6:15 AM 64.4 °F - 51.8 °F 64% 29.95 in 10.0 mi Calm Calm - N/A   Clear
6:35 AM 64.4 °F - 51.8 °F 64% 29.95 in 10.0 mi Calm Calm - N/A   Clear
6:55 AM 66.2 °F - 53.6 °F 64% 29.96 in 10.0 mi Calm Calm - N/A   Clear
7:15 AM 68.0 °F - 55.4 °F 64% 29.96 in 10.0 mi Calm Calm - N/A   Clear
7:35 AM 69.8 °F - 57.2 °F 64% 29.97 in 10.0 mi Calm Calm - N/A   Clear
7:55 AM 73.4 °F - 57.2 °F 57% 29.97 in 10.0 mi Calm Calm - N/A   Clear
8:15 AM 77.0 °F - 57.2 °F 50% 29.98 in 10.0 mi Calm Calm - N/A   Clear
8:35 AM 80.6 °F 80.5 °F 55.4 °F 42% 29.97 in 10.0 mi Calm Calm - N/A   Clear
8:55 AM 84.2 °F 82.8 °F 53.6 °F 35% 29.98 in 10.0 mi Calm Calm - N/A   Clear
9:15 AM 86.0 °F - 51.8 °F 31% 29.98 in 10.0 mi South 5.8 mph - N/A   Clear
9:35 AM 86.0 °F - 51.8 °F 31% 29.97 in 10.0 mi South 4.6 mph - N/A   Clear
9:55 AM 87.8 °F - 50.0 °F 27% 29.97 in 10.0 mi South 4.6 mph - N/A   Clear
10:15 AM 87.8 °F - 50.0 °F 27% 29.98 in 10.0 mi South 4.6 mph - N/A   Clear
10:35 AM 91.4 °F - 48.2 °F 23% 29.98 in 9.0 mi Variable 4.6 mph - N/A   Clear
10:55 AM 89.6 °F - 50.0 °F 26% 29.98 in 10.0 mi South 5.8 mph - N/A   Clear
11:15 AM 91.4 °F - 48.2 °F 23% 29.98 in 10.0 mi South 5.8 mph - N/A   Clear
11:35 AM 93.2 °F - 48.2 °F 21% 29.98 in 9.0 mi Variable 8.1 mph - N/A   Clear
11:55 AM 93.2 °F - 46.4 °F 20% 29.98 in 10.0 mi SSE 6.9 mph - N/A   Clear
12:15 PM 95.0 °F - 46.4 °F 19% 29.98 in 10.0 mi Variable 4.6 mph 12.7 mph N/A   Clear
12:35 PM 95.0 °F - 46.4 °F 19% 29.98 in 10.0 mi South 5.8 mph - N/A   Clear
12:55 PM 95.0 °F - 46.4 °F 19% 29.98 in 10.0 mi Variable 6.9 mph - N/A   Clear
1:15 PM 95.0 °F - 46.4 °F 19% 29.98 in 10.0 mi Variable 5.8 mph 11.5 mph N/A   Clear
1:35 PM 96.8 °F - 44.6 °F 17% 29.97 in 10.0 mi SSE 9.2 mph 15.0 mph N/A   Clear
1:55 PM 96.8 °F - 44.6 °F 17% 29.97 in 4.0 mi South 8.1 mph - N/A   Haze
2:15 PM 96.8 °F - 46.4 °F 18% 29.97 in 10.0 mi South 5.8 mph - N/A   Clear
2:35 PM 96.8 °F - 46.4 °F 18% 29.97 in 10.0 mi South 6.9 mph - N/A   Clear
2:55 PM 96.8 °F - 46.4 °F 18% 29.96 in 10.0 mi SW 8.1 mph - N/A   Clear
3:15 PM 96.8 °F - 46.4 °F 18% 29.96 in 10.0 mi SW 9.2 mph - N/A   Clear
3:35 PM 96.8 °F - 44.6 °F 17% 29.95 in 10.0 mi Variable 6.9 mph - N/A   Clear
3:55 PM 96.8 °F - 42.8 °F 16% 29.95 in 10.0 mi SSW 10.4 mph - N/A   Clear
4:15 PM 96.8 °F - 42.8 °F 16% 29.94 in 10.0 mi WSW 11.5 mph - N/A   Clear
4:35 PM 95.0 °F - 41.0 °F 15% 29.94 in 10.0 mi WSW 8.1 mph - N/A   Clear
4:55 PM 95.0 °F - 41.0 °F 15% 29.94 in 10.0 mi SW 8.1 mph - N/A   Clear
5:15 PM 95.0 °F - 41.0 °F 15% 29.94 in 10.0 mi WSW 8.1 mph - N/A   Clear
5:35 PM 95.0 °F - 39.2 °F 14% 29.93 in 8.0 mi SW 9.2 mph - N/A   Clear
5:55 PM 93.2 °F - 39.2 °F 15% 29.93 in 10.0 mi SW 6.9 mph - N/A   Clear
6:15 PM 93.2 °F - 42.8 °F 17% 29.93 in 10.0 mi SW 8.1 mph - N/A   Clear
6:35 PM 91.4 °F - 44.6 °F 20% 29.93 in 10.0 mi SW 8.1 mph - N/A   Clear
6:55 PM 91.4 °F - 48.2 °F 23% 29.93 in 10.0 mi WSW 8.1 mph - N/A   Clear
7:15 PM 89.6 °F - 48.2 °F 24% 29.93 in 10.0 mi SW 5.8 mph - N/A   Clear
7:35 PM 87.8 °F - 50.0 °F 27% 29.93 in 10.0 mi West 4.6 mph - N/A   Clear
7:55 PM 86.0 °F - 50.0 °F 29% 29.94 in 10.0 mi WSW 3.5 mph - N/A   Clear
8:15 PM 82.4 °F - 51.8 °F 35% 29.94 in 10.0 mi Calm Calm - N/A   Clear
8:35 PM 78.8 °F - 51.8 °F 39% 29.95 in 10.0 mi Calm Calm - N/A   Clear
8:55 PM 77.0 °F - 53.6 °F 44% 29.95 in 10.0 mi Calm Calm - N/A   Clear
9:15 PM 75.2 °F - 53.6 °F 47% 29.95 in 10.0 mi Calm Calm - N/A   Clear
9:55 PM 71.6 °F - 53.6 °F 53% 29.96 in 10.0 mi Calm Calm - N/A   Clear
10:15 PM 69.8 °F - 53.6 °F 56% 29.97 in 10.0 mi Calm Calm - N/A   Partly Cloudy
10:35 PM 68.0 °F - 53.6 °F 60% 29.96 in 10.0 mi Calm Calm - N/A   Mostly Cloudy
10:55 PM 68.0 °F - 53.6 °F 60% 29.96 in 10.0 mi Calm Calm - N/A   Mostly Cloudy
11:15 PM 66.2 °F - 53.6 °F 64% 29.96 in 10.0 mi Calm Calm - N/A   Scattered Clouds
11:35 PM 66.2 °F - 53.6 °F 64% 29.96 in 10.0 mi Calm Calm - N/A   Clear
11:55 PM 66.2 °F - 51.8 °F 60% 29.96 in 10.0 mi Calm Calm - N/A   Clear